Regional Weather Roundup
Issued by NWS Nashville, TN

Home | Current Version | Previous Version | Text Only | Print | Product List | Glossary On
Versions: 1 2 3 4 5 6 7 8 9 10 11 12 13 14 15 16 17 18 19 20 21 22 23 24 25 26 27 28 29 30 31 32 33 34 35 36 37 38 39 40 41 42 43 44 45 46 47 48 49 50
000
ASUS44 KOHX 020515
RWROHX
MIDDLE TENNESSEE HOURLY WEATHER ROUNDUP
NATIONAL WEATHER SERVICE NASHVILLE TN
1100 PM CST SUN MAR 01 2015

NOTE: "FAIR" INDICATES FEW OR NO CLOUDS BELOW 12,000 FEET WITH
NO SIGNIFICANT WEATHER AND/OR OBSTRUCTIONS TO VISIBILITY.

* THESE REPORTS ARE NOT UNDER NWS QUALITY CONTROL AND MAY NOT
  REPORT WEATHER SUCH AS PRECIPITATION AND FOG.


TNZ005>011-023>034-057-059-062>066-078-080-020600
...NORTHERN MIDDLE TENNESSEE...

CITY           SKY/WX    TMP DP  RH WIND       PRES   REMARKS
CLARKSVILLE    HVY RAIN  34  33  96 N12       30.40R FOG     WCI  25
CROSSVILLE     CLOUDY    45  44  97 VRB5      30.28F FOG
GALLATIN       CLOUDY    38  38 100 N13G26    30.36R WCI  30
DICKSON          N/A     37  37 100 N8        30.35S WCI  31
LEBANON        CLOUDY    42  41  97 NW15      30.33R
LIVINGSTON     CLOUDY    49  49 100 SW7       30.28F VSB 1/4
NASHVILLE      LGT RAIN  41  41 100 N7        30.36R FOG
WEST NASHVILLE CLOUDY    39  39 100 N7        30.36R WCI  34
PORTLAND       MOCLDY    34  34 100 N5        30.35R WCI  30
SMYRNA         LGT RAIN  42  42 100 N20       30.36R FOG
SPARTA         CLOUDY    48  48 100 SW3       30.30S VSB 3/4
$$
TNZ056-058-060-061-075>077-079-093>097-020600
...SOUTHERN MIDDLE TENNESSEE...

CITY           SKY/WX    TMP DP  RH WIND       PRES   REMARKS
COLUMBIA       CLOUDY   N/A N/A N/A CALM      30.31F
LEWISBURG      CLOUDY    49  49 100 S6G21     30.32S
MCMINNVILLE    CLOUDY    48  48 100 W6        30.31R
MURFREESBORO   CLOUDY    49  49 100 SW3       30.33R
SHELBYVILLE    CLOUDY    50  50 100 SW3       30.33S
TULLAHOMA      CLOUDY    46  46 100 SW5       30.32S
WINCHESTER     CLOUDY    46  46 100 CALM      30.33S
$$


...KEY TO REMARKS...
VSB - VISIBILITY IN MILES
WCI - WIND CHILL INDEX
HX  - HEAT INDEX



USA.gov is the U.S. government's official web portal to all federal, state and local government web resources and services.